[[{"header":{"parameterUnit":"m.s-1","parameterCategory":1,"la1":30.2991,"la2":30.254,"lo1":-89.0895,"lo2":-89.0444,"dy":0.0017,"dx":0.0017,"nx":28,"ny":28,"refTime":"2024-07-26T21:00:00:Z","depth":0,"parameterNumber":2,"parameterNumberName":"U-component_of_WINDS"},"data":[0,0,0,0,0,0,0,0,0,0,0,0,0,0,0,0,0,0,0,0,0,0,0,0,0,0,0,0,0,0,0,0,0,0,0,0,0,0,0,0,0,0,0,0,0,0,0,0,0,0,0,0,0,0,0,0,0,0,-1.6603,-1.6604,0,-1.6682,-1.6683,-1.6684,-1.6703,-1.6703,-1.6702,-1.6702,-1.6781,-1.6784,-1.6786,0,0,0,0,0,0,0,0,0,0,0,0,0,-1.6467,-1.647,-1.6603,-1.6604,-1.6605,-1.6682,-1.6683,-1.6685,-1.6703,-1.6703,-1.6702,-1.6702,-1.678,-1.6783,-1.6786,0,0,0,0,0,0,0,0,0,0,0,0,0,-1.6534,-1.647,-1.6603,-1.6624,-1.6627,-1.6682,-1.6683,-1.6685,-1.6704,-1.6703,-1.6702,-1.6701,-1.6779,-1.6783,-1.6787,-1.6827,0,0,-1.6799,-1.68,0,0,0,0,0,0,0,0,-1.653,-1.6539,-1.662,-1.6623,-1.6626,-1.6682,-1.6665,-1.6732,-1.6704,-1.6674,-1.6702,-1.6701,-1.6749,-1.6755,-1.6772,-1.683,-1.6834,-1.6799,-1.6802,-1.6803,-1.6804,0,0,0,0,0,0,0,-1.6526,-1.6536,-1.6635,-1.6621,-1.6625,-1.6629,-1.6638,-1.6677,-1.6715,-1.6677,-1.6678,-1.6688,-1.675,-1.6768,-1.6774,-1.6835,-1.6799,-1.6802,-1.6805,-1.6806,-1.6929,-1.693,0,0,0,0,0,0,-1.6518,-1.6532,-1.6632,-1.6637,-1.6575,-1.6632,-1.6642,-1.6665,-1.6715,-1.6721,-1.6688,-1.6688,-1.6762,-1.6769,-1.6776,-1.6825,-1.6803,-1.6807,-1.6809,-1.6928,-1.6929,-1.693,0,0,0,0,0,0,-1.6515,-1.6526,-1.6629,-1.6585,-1.6598,-1.6635,-1.6661,-1.6667,-1.6685,-1.6723,-1.673,-1.6699,-1.6761,-1.6771,-1.6814,-1.6828,-1.6809,-1.6812,-1.6927,-1.6928,-1.693,-1.6924,0,0,0,0,0,0,-1.6511,-1.6525,-1.6541,-1.6585,-1.6601,-1.6665,-1.6662,-1.6669,-1.6691,-1.6692,-1.6735,-1.6742,-1.6761,-1.6808,-1.6818,-1.6833,-1.6815,-1.6926,-1.6928,-1.6929,-1.6923,-1.6925,-1.6926,0,0,0,0,0,-1.6506,-1.6536,-1.6542,-1.6554,-1.6621,-1.6666,-1.6675,-1.6697,-1.6693,-1.6708,-1.6733,-1.674,-1.6825,-1.6812,-1.6823,-1.684,-1.6925,-1.6927,-1.6929,-1.6922,-1.6924,-1.6926,0,0,0,0,0,0,-1.6492,-1.6542,-1.6549,-1.6595,-1.6626,-1.6669,-1.669,-1.6699,-1.6732,-1.6732,-1.6758,-1.6767,-1.6808,-1.6829,-1.6813,-1.6881,-1.6875,-1.6879,-1.6866,-1.6868,-1.687,-1.6864,-1.6818,0,0,0,0,0,-1.6495,-1.6528,-1.6569,-1.6606,-1.6621,-1.6653,-1.6673,-1.6688,-1.6721,-1.6734,-1.6762,-1.6794,-1.6828,-1.6849,-1.6883,-1.6926,-1.6935,-1.6943,-1.6945,-1.6946,-1.6949,-1.6973,-1.6977,-1.6937,-1.6937,-1.6937,0,0,-1.65,-1.6531,-1.655,-1.6604,-1.663,-1.6662,-1.6664,-1.6699,-1.6723,-1.674,-1.6782,-1.6803,-1.684,-1.6883,-1.6903,-1.6902,-1.6963,-1.6949,-1.695,-1.6952,-1.6975,-1.6979,-1.6982,-1.6938,-1.6938,-1.6938,0,0,-1.6526,-1.6553,-1.6586,-1.6612,-1.6652,-1.6673,-1.6681,-1.6723,-1.6738,-1.678,-1.6793,-1.6822,-1.688,-1.6906,-1.6926,-1.6962,-1.6969,-1.6972,-1.6981,-1.7003,-1.7007,-1.7009,-1.7021,-1.7025,-1.6975,-1.6975,-1.6975,0,-1.6527,-1.6577,-1.6602,-1.6636,-1.6658,-1.6676,-1.6708,-1.6732,-1.678,-1.6795,-1.6793,-1.6865,-1.6892,-1.694,-1.6949,-1.6965,-1.6974,-1.6966,-1.7004,-1.7007,-1.701,-1.7022,-1.7026,-1.6975,-1.6975,-1.6975,-1.6975,0,-1.6576,-1.6611,-1.6633,-1.6679,-1.6704,-1.6738,-1.6766,-1.6789,-1.6801,-1.6822,-1.6865,-1.6897,-1.6936,-1.6949,-1.6962,-1.7,-1.6997,-1.6999,-1.6994,-1.7014,-1.7025,-1.7029,-1.6975,-1.6975,-1.6975,-1.6975,0,0,-1.6596,-1.6655,-1.6662,-1.6683,-1.6728,-1.6755,-1.6789,-1.6828,-1.6846,-1.6879,-1.6907,-1.6956,-1.6958,-1.6981,-1.6996,-1.7017,-1.7041,-1.7016,-1.7017,-1.7018,-1.7084,-1.7081,-1.7086,-1.7047,-1.7048,-1.7049,-1.708,0,-1.6626,-1.6687,-1.671,-1.676,-1.6792,-1.6808,-1.6838,-1.6868,-1.6889,-1.6918,-1.6941,-1.6974,-1.6975,-1.6989,-1.701,-1.7034,-1.7054,-1.7032,-1.7072,-1.7074,-1.7061,-1.7092,-1.7089,-1.7118,-1.7085,-1.7086,-1.7086,0,-1.667,-1.6703,-1.6756,-1.6797,-1.6811,-1.6837,-1.6874,-1.6903,-1.6937,-1.695,-1.6976,-1.699,-1.7026,-1.7019,-1.7067,-1.7051,-1.7069,-1.7084,-1.7085,-1.7089,-1.708,-1.7095,-1.7127,-1.7131,-1.7093,-1.7093,-1.7092,0,-1.6677,-1.6735,-1.6774,-1.6792,-1.684,-1.6858,-1.6879,-1.6913,-1.6934,-1.6967,-1.6981,-1.7018,-1.7037,-1.7064,-1.7088,-1.7081,-1.7133,-1.7129,-1.7145,-1.7144,-1.7154,-1.7153,-1.7188,-1.7167,-1.7167,-1.7167,-1.7167,0,-1.6708,-1.674,-1.6778,-1.6802,-1.6838,-1.6863,-1.6898,-1.6919,-1.6949,-1.6977,-1.6994,-1.702,-1.7049,-1.7079,-1.7097,-1.7134,-1.7143,-1.7154,-1.7158,-1.7152,-1.715,-1.7163,-1.7161,-1.7168,-1.7168,-1.7168,-1.7168,0,-1.6722,-1.6749,-1.6792,-1.6835,-1.6846,-1.687,-1.6906,-1.693,-1.6951,-1.6986,-1.6996,-1.7029,-1.7064,-1.7091,-1.7136,-1.7149,-1.7187,-1.7192,-1.7176,-1.7178,-1.7192,-1.719,-1.7236,-1.7243,-1.7218,-1.7218,-1.7218,0,-1.6739,-1.6764,-1.6809,-1.6829,-1.685,-1.6882,-1.6904,-1.693,-1.6953,-1.6994,-1.7012,-1.7049,-1.7079,-1.7135,-1.7163,-1.7198,-1.7203,-1.7217,-1.7208,-1.7201,-1.7202,-1.72,-1.7202,-1.7218,-1.7218,-1.7218,-1.7218,0,-1.6767,-1.6779,-1.6811,-1.6848,-1.6874,-1.6904,-1.6934,-1.695,-1.6981,-1.7005,-1.7042,-1.7066,-1.7113,-1.7148,-1.7186,-1.7207,-1.7217,-1.7221,-1.7226,-1.7219,-1.7208,-1.7213,-1.7178,-1.7219,-1.7219,-1.7219,-1.7219,-1.7219,-1.6783,-1.6805,-1.684,-1.6875,-1.69,-1.6928,-1.6952,-1.6976,-1.7007,-1.7048,-1.7061,-1.7099,-1.7132,-1.7184,-1.7205,-1.7234,-1.7234,-1.7242,-1.7244,-1.7245,-1.7244,-1.7204,-1.7241,-1.7241,-1.7241,-1.7241,-1.7241,0,-1.681,-1.6834,-1.6865,-1.6907,-1.6934,-1.6943,-1.6976,-1.6998,-1.7031,-1.7062,-1.7092,-1.7133,-1.7168,-1.7199,-1.7235,-1.7252,-1.7258,-1.726,-1.7259,-1.7263,-1.7243,-1.7234,-1.7255,-1.7255,-1.7255,-1.7255,-1.7255,-1.7255,-1.6828,-1.6866,-1.6882,-1.6932,-1.6956,-1.6993,-1.7011,-1.7036,-1.7061,-1.7107,-1.7136,-1.7156,-1.7186,-1.7224,-1.7256,-1.7264,-1.7276,-1.7278,-1.7287,-1.7267,-1.7265,-1.7263,-1.7255,-1.728,-1.728,-1.7305,-1.7305,-1.7305]},{"header":{"parameterUnit":"m.s-1","parameterCategory":1,"la1":30.2991,"la2":30.254,"lo1":-89.0895,"lo2":-89.0444,"dy":0.0017,"dx":0.0017,"nx":28,"ny":28,"refTime":"2024-07-26T21:00:00:Z","depth":0,"parameterNumber":3,"parameterNumberName":"V-component_of_WINDS"},"data":[0,0,0,0,0,0,0,0,0,0,0,0,0,0,0,0,0,0,0,0,0,0,0,0,0,0,0,0,0,0,0,0,0,0,0,0,0,0,0,0,0,0,0,0,0,0,0,0,0,0,0,0,0,0,0,0,0,0,1.8577,1.8578,0,1.86,1.86,1.86,1.8528,1.8526,1.8524,1.8521,1.8544,1.8547,1.8549,0,0,0,0,0,0,0,0,0,0,0,0,0,1.8473,1.8475,1.8577,1.8578,1.8578,1.86,1.86,1.86,1.8528,1.8526,1.8523,1.852,1.8543,1.8546,1.8549,0,0,0,0,0,0,0,0,0,0,0,0,0,1.8509,1.8476,1.8577,1.8545,1.8542,1.86,1.86,1.86,1.8529,1.8526,1.8522,1.8519,1.8542,1.8546,1.855,1.864,0,0,1.8562,1.8564,0,0,0,0,0,0,0,0,1.8507,1.8513,1.8549,1.8547,1.8544,1.8558,1.8571,1.8614,1.853,1.8534,1.8521,1.8518,1.8551,1.8554,1.8565,1.8641,1.8642,1.8562,1.8565,1.8566,1.8567,0,0,0,0,0,0,0,1.8504,1.8511,1.8586,1.855,1.8547,1.8529,1.853,1.8579,1.8561,1.8533,1.8528,1.8532,1.8549,1.8562,1.8565,1.8642,1.8562,1.8566,1.8568,1.857,1.8793,1.8796,0,0,0,0,0,0,1.8506,1.851,1.8585,1.8587,1.8517,1.8533,1.8535,1.8557,1.856,1.8557,1.8534,1.8528,1.8557,1.8561,1.8566,1.8672,1.8566,1.857,1.8572,1.8789,1.8794,1.8797,0,0,0,0,0,0,1.8504,1.8514,1.8584,1.8547,1.8555,1.8539,1.8563,1.8559,1.8571,1.8561,1.8557,1.8551,1.8554,1.856,1.8622,1.8672,1.8572,1.8575,1.8785,1.8791,1.8796,1.8884,0,0,0,0,0,0,1.8502,1.8513,1.8547,1.8548,1.8557,1.8641,1.8566,1.8562,1.8578,1.8571,1.8575,1.8573,1.8552,1.8617,1.8626,1.8675,1.8578,1.8781,1.8788,1.8794,1.8877,1.8892,1.8905,0,0,0,0,0,1.8498,1.8571,1.855,1.8559,1.8599,1.8644,1.8648,1.8623,1.8583,1.8617,1.861,1.8573,1.8665,1.8624,1.8634,1.8685,1.8777,1.8786,1.8793,1.887,1.8889,1.8904,0,0,0,0,0,0,1.8576,1.8571,1.8547,1.8622,1.8634,1.8631,1.8673,1.8644,1.8667,1.8658,1.8626,1.8628,1.8695,1.8696,1.865,1.8772,1.8714,1.8724,1.8769,1.8787,1.88,1.8799,1.8582,0,0,0,0,0,1.8603,1.8639,1.8632,1.87,1.8707,1.869,1.8708,1.8688,1.8698,1.8703,1.87,1.8712,1.8744,1.8765,1.8794,1.8877,1.8877,1.8917,1.8931,1.8942,1.8952,1.8996,1.9014,1.8824,1.8824,1.8824,0,0,1.8657,1.8658,1.8683,1.8716,1.8722,1.8761,1.8694,1.8738,1.8766,1.8709,1.8767,1.8766,1.8777,1.885,1.8882,1.8853,1.9004,1.8952,1.8962,1.8965,1.9006,1.9024,1.904,1.8829,1.8828,1.8827,0,0,1.8776,1.878,1.8837,1.8845,1.8856,1.8844,1.8858,1.886,1.8858,1.8915,1.8874,1.8907,1.8962,1.8972,1.8984,1.9107,1.9074,1.9117,1.9191,1.9234,1.9249,1.9262,1.9306,1.9323,1.9127,1.9127,1.9127,0,1.8842,1.8898,1.887,1.8917,1.8932,1.8883,1.8941,1.895,1.897,1.8982,1.8949,1.9017,1.9021,1.9095,1.9126,1.9137,1.9152,1.9117,1.9249,1.9262,1.9274,1.9316,1.9332,1.9132,1.9132,1.9131,1.9131,0,1.8979,1.9019,1.9064,1.9084,1.9105,1.9157,1.9137,1.9161,1.9139,1.9131,1.919,1.9194,1.9222,1.9238,1.9217,1.931,1.9292,1.9255,1.9196,1.9298,1.9336,1.9352,1.914,1.9138,1.9136,1.9135,0,0,1.9147,1.9152,1.9169,1.9178,1.9187,1.9217,1.9267,1.9295,1.9316,1.9332,1.9373,1.9421,1.9387,1.9401,1.9381,1.9419,1.9517,1.9377,1.9377,1.9403,1.962,1.9648,1.9667,1.9495,1.9498,1.95,1.9619,0,1.9264,1.9349,1.9326,1.9411,1.9448,1.9402,1.9445,1.9456,1.9449,1.948,1.9472,1.9507,1.9459,1.9468,1.9503,1.9497,1.956,1.9488,1.9533,1.9535,1.9531,1.9687,1.9716,1.9829,1.9634,1.9636,1.9638,0,1.9412,1.9433,1.9523,1.9526,1.954,1.958,1.9604,1.9633,1.9644,1.9637,1.9653,1.9625,1.9674,1.9615,1.9683,1.9635,1.9651,1.9651,1.9655,1.9658,1.9593,1.9694,1.9864,1.9881,1.9662,1.966,1.9658,0,1.9526,1.9577,1.9637,1.9646,1.9651,1.968,1.9684,1.9691,1.971,1.9731,1.9743,1.9769,1.9784,1.9805,1.9785,1.9744,1.9856,1.9795,1.9852,1.9852,1.9877,1.9876,2.0052,1.9888,1.9888,1.9888,1.9887,0,1.9659,1.9715,1.9688,1.9725,1.9787,1.976,1.9822,1.982,1.9828,1.9863,1.9825,1.986,1.9832,1.9864,1.9849,1.9907,1.9914,1.991,1.9905,1.9913,1.9914,1.9924,1.9915,1.9892,1.9891,1.989,1.9889,0,1.9796,1.9781,1.9843,1.9843,1.9845,1.989,1.989,1.9925,1.9916,1.9962,1.9971,1.9957,1.9993,1.9975,2.0013,2.0003,2.0078,2.0063,2.0075,2.0071,2.0128,2.0123,2.0317,2.0341,2.0162,2.0163,2.0165,0,1.9882,1.9925,1.9929,1.9951,1.9957,1.9992,2.0011,1.9985,2.0007,2.0023,2.0055,2.0088,2.0113,2.0172,2.0166,2.0194,2.0179,2.0245,2.0183,2.0191,2.0181,2.0179,2.0183,2.0258,2.026,2.0262,2.0263,0,2.0036,2.0027,2.0055,2.0082,2.0105,2.0125,2.0141,2.0161,2.0136,2.0162,2.0198,2.0217,2.0256,2.0289,2.0314,2.0317,2.0287,2.0283,2.0297,2.0306,2.0311,2.0309,2.0109,2.0278,2.0277,2.0275,2.0275,2.0274,2.0151,2.0187,2.0196,2.0229,2.0238,2.0255,2.0287,2.0282,2.0312,2.0342,2.0325,2.0368,2.0378,2.0408,2.0416,2.0449,2.0423,2.0444,2.045,2.0455,2.0463,2.0306,2.0454,2.0453,2.0453,2.0453,2.0452,0,2.0303,2.0307,2.0338,2.0362,2.0388,2.0357,2.0373,2.0397,2.0435,2.0448,2.0473,2.0515,2.0547,2.0544,2.0573,2.06,2.0587,2.0609,2.0607,2.0608,2.0485,2.0469,2.0619,2.0619,2.0619,2.0619,2.0619,2.0619,2.0386,2.0444,2.0436,2.0499,2.0502,2.0544,2.0556,2.0571,2.0581,2.063,2.0656,2.0654,2.066,2.0689,2.0717,2.0715,2.0728,2.0756,2.0749,2.0633,2.0617,2.0601,2.0586,2.0759,2.0759,2.0869,2.087,2.0871]}]]